Content
SEND FEEDBACK

Daily
Averages
Monthly
Summary
United States of America

UPI, GUAM


Home > North America > United States > Guam
Elevation: 53 feet     Latitude: 13 34N     Longitude: 144 55E

WEATHER
 
SELECT A DAY
Number of Records: 215,513;   Date Range: 1/1/95 - 12/17/14
 
SHARE

PRINT THIS DATA

[ ← Previous Day ]
WEATHER ALMANAC - MARCH 16, 2013
[ Next Day → ]
[ °C ]   °F
Weather ElementAverageHighLow
Temperature82.5 °F88 °F (10:54 am)78.1 °F (4:54 am)
Dewpoint71.2 °F73.4 °F (12:09 pm)69.8 °F (11:28 am)
Humidity69 %81 % (6:54 am)55 % (10:54 am)
Barometer29.92 in29.96 in (8:54 am)29.86 in (3:54 pm)
Wind Speed10.6 mph16.1 mph (11:54 am)
Wind Gust23 mph (10:54 am)
Weather ElementAverage
Visibility9.8 mi
Wind DirectionENE (57.6 °)

Weather ElementTotal
Precipitation---
Cooling Degree Days18.1 (Base 65)
Growing Degree Days33.1 (Base 50)
Averaged from 29 records on March 16, 2013
WEATHER CONDITIONS BREAKOUT
WIND DIRECTION BREAKOUT
WEATHER BY HOUR - MARCH 16, 2013
[ °C ]   °F
Local TimeTemperatureDewpointHumidityBarometerVisibilityWind DirectionWind SpeedGust SpeedPrecipitationEventsConditions
1:54 AM80.1 °F72.0 °F76 %29.92 in10.0 miENE (60°)5.8 mphMostly Cloudy
2:54 AM80.1 °F71.1 °F74 %29.91 in10.0 miENE (60°)6.9 mphOvercast
3:54 AM79.0 °F71.1 °F77 %29.89 in10.0 miENE (70°)4.6 mphScattered Clouds
4:54 AM78.1 °F71.1 °F79 %29.89 in10.0 miENE (60°)5.8 mphClear
5:54 AM79.0 °F71.1 °F77 %29.91 in10.0 miENE (60°)8.1 mphClear
6:54 AM78.1 °F72.0 °F81 %29.93 in10.0 miNE (50°)5.8 mphScattered Clouds
7:54 AM80.1 °F72.0 °F76 %29.95 in10.0 miNE (50°)8.1 mphClear
8:54 AM82.9 °F71.1 °F67 %29.96 in10.0 miNE (50°)13.8 mphPartly Cloudy
9:54 AM84.0 °F70.0 °F63 %29.96 in10.0 miENE (60°)11.5 mphScattered Clouds
10:54 AM88.0 °F70.0 °F55 %29.95 in10.0 miNE (50°)13.8 mph23.0 mphScattered Clouds
11:28 AM84.2 °F69.8 °F62 %29.96 in10.0 miNE (40°)11.5 mphMostly Cloudy
11:54 AM80.1 °F73.0 °F79 %29.94 in9.0 miNE (40°)16.1 mph0.00 inRainLight Rain
12:09 PM80.6 °F73.4 °F79 %29.95 in6.0 miNE (40°)10.4 mph0.00 inRainLight Rain
12:35 PM84.2 °F71.6 °F66 %29.94 in10.0 miNE (50°)15.0 mph0.00 inOvercast
12:54 PM84.0 °F71.1 °F65 %29.91 in10.0 miENE (60°)15.0 mph0.00 inOvercast
1:01 PM84.2 °F71.6 °F66 %29.93 in10.0 miENE (60°)15.0 mphOvercast
1:13 PM84.2 °F71.6 °F66 %29.93 in10.0 miNE (40°)13.8 mphOvercast
1:45 PM87.8 °F71.6 °F58 %29.91 in10.0 miEast (90°)16.1 mphMostly Cloudy
1:54 PM87.1 °F70.0 °F57 %29.88 in10.0 miENE (70°)16.1 mph21.9 mphScattered Clouds
2:54 PM87.1 °F71.1 °F59 %29.87 in10.0 miNE (50°)16.1 mphMostly Cloudy
3:54 PM87.1 °F70.0 °F57 %29.86 in10.0 miNE (50°)15.0 mphMostly Cloudy
4:54 PM84.9 °F70.0 °F61 %29.87 in10.0 miENE (70°)11.5 mphScattered Clouds
5:54 PM82.9 °F70.0 °F65 %29.89 in10.0 miENE (70°)12.7 mphScattered Clouds
6:54 PM82.0 °F71.1 °F69 %29.89 in10.0 miENE (60°)8.1 mphPartly Cloudy
7:54 PM81.0 °F72.0 °F74 %29.91 in10.0 miNE (50°)4.6 mphPartly Cloudy
8:54 PM81.0 °F71.1 °F72 %29.91 in10.0 miENE (70°)6.9 mphPartly Cloudy
9:54 PM81.0 °F71.1 °F72 %29.92 in10.0 miENE (60°)6.9 mphPartly Cloudy
10:54 PM80.1 °F71.1 °F74 %29.92 in10.0 miENE (60°)6.9 mphPartly Cloudy
11:54 PM80.1 °F71.1 °F74 %29.92 in10.0 miENE (70°)6.9 mphPartly Cloudy
Hourly data recorded from PGUM, located miles away from Upi, Guam







STORIES FROM OUR PARTNERS